| time (UTC) | temp F | wind direction | speed MPH | gust MPH | rain 1hr in | rain 24hr in | rain mn in | humidity % | barometer mb |
| 20260507125709 | 72 | 174 | 5.0 | 14.0 | 0.00 | 0.00 | 0.00 | 82 | 1012.7 |
| 20260507125154 | 72 | 173 | 6.0 | 14.0 | 0.00 | 0.00 | 0.00 | 81 | 1011.9 |
| 20260507124331 | 72 | 134 | 6.0 | 14.0 | 0.00 | 0.00 | 0.00 | 81 | 1010.4 |
| 20260507123832 | 71 | 150 | 8.0 | 16.0 | 0.00 | 0.00 | 0.00 | 83 | 1009.7 |
| 20260507123331 | 71 | 111 | 8.0 | 16.0 | 0.00 | 0.00 | 0.00 | 81 | 1009.1 |
| 20260507122829 | 71 | 131 | 8.0 | 16.0 | 0.00 | 0.00 | 0.00 | 81 | 1008.6 |
| 20260507122731 | 71 | 128 | 8.0 | 18.0 | 0.00 | 0.00 | 0.00 | 81 | 1008.2 |
| 20260507121835 | 71 | 80 | 9.0 | 18.0 | 0.00 | 0.00 | 0.00 | 82 | 1008.4 |
| 20260507121329 | 71 | 99 | 8.0 | 17.0 | 0.00 | 0.00 | 0.00 | 83 | 1008.9 |
| 20260507120829 | 70 | 119 | 6.0 | 12.0 | 0.00 | 0.00 | 0.00 | 83 | 1009.3 |
| 20260507120330 | 70 | 107 | 3.0 | 8.0 | 0.00 | 0.00 | 0.00 | 84 | 1010.3 |
| 20260507120159 | 70 | 118 | 2.0 | 6.0 | 0.00 | 0.00 | 0.00 | 84 | 1010.7 |
| 20260507115330 | 70 | 100 | 2.0 | 3.0 | 0.00 | 0.00 | 0.00 | 84 | 1011.1 |
| 20260507114831 | 70 | 120 | 1.0 | 3.0 | 0.00 | 0.00 | 0.00 | 84 | 1011.3 |
| 20260507114329 | 70 | 165 | 1.0 | 2.0 | 0.00 | 0.00 | 0.00 | 84 | 1011.6 |
| 20260507113830 | 70 | 165 | 1.0 | 2.0 | 0.00 | 0.00 | 0.00 | 83 | 1011.6 |
| 20260507113329 | 70 | 160 | 1.0 | 3.0 | 0.00 | 0.00 | 0.00 | 83 | 1011.7 |
| 20260507112830 | 70 | 130 | 2.0 | 3.0 | 0.00 | 0.00 | 0.00 | 83 | 1011.5 |
| 20260507112331 | 70 | 145 | 2.0 | 3.0 | 0.00 | 0.00 | 0.00 | 83 | 1011.5 |
| 20260507111835 | 70 | 130 | 2.0 | 3.0 | 0.00 | 0.00 | 0.00 | 83 | 1011.4 |
| 20260507111335 | 70 | 177 | 1.0 | 4.0 | 0.00 | 0.00 | 0.00 | 82 | 1011.5 |
| 20260507110830 | 70 | 177 | 1.0 | 4.0 | 0.00 | 0.00 | 0.00 | 82 | 1011.8 |
| 20260507110335 | 70 | 177 | 1.0 | 7.0 | 0.00 | 0.00 | 0.00 | 82 | 1011.9 |
| 20260507110201 | 71 | 177 | 1.0 | 7.0 | 0.00 | 0.00 | 0.00 | 82 | 1012.1 |
| 20260507105332 | 71 | 177 | 2.0 | 7.0 | 0.00 | 0.00 | 0.00 | 82 | 1012.0 |
| 20260507104830 | 70 | 161 | 2.0 | 7.0 | 0.00 | 0.00 | 0.00 | 82 | 1012.1 |
| 20260507104330 | 70 | 198 | 1.0 | 3.0 | 0.00 | 0.00 | 0.00 | 81 | 1012.0 |
| 20260507103830 | 70 | 158 | 1.0 | 3.0 | 0.00 | 0.00 | 0.00 | 82 | 1012.1 |
| 20260507103330 | 70 | 190 | 2.0 | 6.0 | 0.00 | 0.00 | 0.00 | 83 | 1012.0 |
| 20260507103201 | 70 | 190 | 2.0 | 6.0 | 0.00 | 0.00 | 0.00 | 82 | 1012.0 |
| 20260507102330 | 71 | 208 | 2.0 | 6.0 | 0.00 | 0.00 | 0.00 | 83 | 1012.0 |
| 20260507101830 | 70 | 148 | 2.0 | 6.0 | 0.00 | 0.00 | 0.00 | 82 | 1012.0 |
| 20260507101328 | 70 | 169 | 3.0 | 9.0 | 0.00 | 0.00 | 0.00 | 82 | 1012.3 |
| 20260507100833 | 70 | 134 | 3.0 | 9.0 | 0.00 | 0.00 | 0.00 | 82 | 1012.2 |
| 20260507100331 | 70 | 202 | 2.0 | 8.0 | 0.00 | 0.00 | 0.00 | 83 | 1012.5 |
| 20260507095830 | 70 | 195 | 3.0 | 6.0 | 0.00 | 0.00 | 0.00 | 83 | 1012.6 |
| 20260507095329 | 70 | 229 | 3.0 | 6.0 | 0.00 | 0.00 | 0.00 | 83 | 1012.8 |
| 20260507094833 | 70 | 189 | 2.0 | 5.0 | 0.00 | 0.00 | 0.00 | 84 | 1012.8 |
| 20260507094331 | 71 | 221 | 2.0 | 6.0 | 0.00 | 0.00 | 0.00 | 85 | 1012.7 |
| 20260507093835 | 71 | 190 | 2.0 | 8.0 | 0.00 | 0.00 | 0.00 | 85 | 1012.6 |
| 20260507093331 | 71 | 175 | 3.0 | 8.0 | 0.00 | 0.00 | 0.00 | 84 | 1012.7 |
| 20260507092831 | 71 | 206 | 3.0 | 8.0 | 0.00 | 0.00 | 0.00 | 84 | 1012.6 |
| 20260507092330 | 71 | 222 | 1.0 | 8.0 | 0.00 | 0.00 | 0.00 | 84 | 1012.4 |
| 20260507091831 | 71 | 196 | 1.0 | 2.0 | 0.00 | 0.00 | 0.00 | 85 | 1012.2 |
| 20260507091705 | 71 | 194 | 1.0 | 3.0 | 0.00 | 0.00 | 0.00 | 85 | 1012.1 |
| 20260507090829 | 71 | 196 | 1.0 | 4.0 | 0.00 | 0.00 | 0.00 | 85 | 1011.9 |
| 20260507090323 | 71 | 206 | 1.0 | 4.0 | 0.00 | 0.00 | 0.00 | 85 | 1011.8 |
| 20260507090149 | 71 | 200 | 1.0 | 3.0 | 0.00 | 0.00 | 0.00 | 85 | 1011.4 |
| 20260507085634 | 71 | 244 | 1.0 | 4.0 | 0.00 | 0.00 | 0.00 | 85 | 1011.3 |
| 20260507084815 | 71 | 214 | 1.0 | 4.0 | 0.00 | 0.00 | 0.00 | 84 | 1011.1 |
| 20260507084315 | 71 | 205 | 1.0 | 4.0 | 0.00 | 0.00 | 0.00 | 84 | 1010.6 |
| 20260507083815 | 71 | 202 | 0.0 | 4.0 | 0.00 | 0.00 | 0.00 | 84 | 1010.4 |
| 20260507083635 | 72 | 173 | 0.0 | 2.0 | 0.00 | 0.00 | 0.00 | 83 | 1010.4 |
| 20260507082815 | 72 | 173 | 1.0 | 3.0 | 0.00 | 0.00 | 0.00 | 83 | 1010.4 |
| 20260507082314 | 72 | 199 | 1.0 | 3.0 | 0.00 | 0.00 | 0.00 | 83 | 1010.6 |
| 20260507082142 | 72 | 211 | 0.0 | 2.0 | 0.00 | 0.00 | 0.00 | 83 | 1010.3 |
| 20260507081311 | 73 | 173 | 0.0 | 2.0 | 0.00 | 0.00 | 0.00 | 82 | 1010.1 |
| 20260507080811 | 73 | 173 | 1.0 | 2.0 | 0.00 | 0.00 | 0.00 | 81 | 1010.2 |
| 20260507080313 | 73 | 154 | 1.0 | 4.0 | 0.00 | 0.00 | 0.00 | 81 | 1010.2 |
| 20260507075811 | 73 | 184 | 1.0 | 4.0 | 0.00 | 0.00 | 0.00 | 81 | 1010.1 |
| 20260507075309 | 73 | 188 | 1.0 | 4.0 | 0.00 | 0.00 | 0.00 | 80 | 1009.9 |
| 20260507074807 | 73 | 174 | 1.0 | 4.0 | 0.00 | 0.00 | 0.00 | 80 | 1009.8 |
| 20260507074310 | 74 | 138 | 2.0 | 4.0 | 0.00 | 0.00 | 0.00 | 80 | 1009.9 |
| 20260507073807 | 74 | 161 | 1.0 | 4.0 | 0.00 | 0.00 | 0.00 | 80 | 1009.9 |
| 20260507073307 | 74 | 184 | 1.0 | 8.0 | 0.00 | 0.00 | 0.00 | 79 | 1009.8 |
| 20260507072807 | 74 | 123 | 2.0 | 8.0 | 0.00 | 0.00 | 0.00 | 78 | 1009.8 |
| 20260507072308 | 74 | 151 | 2.0 | 5.0 | 0.00 | 0.00 | 0.00 | 78 | 1010.0 |
| 20260507071805 | 74 | 151 | 2.0 | 7.0 | 0.00 | 0.00 | 0.00 | 77 | 1010.2 |
| 20260507071306 | 74 | 158 | 2.0 | 7.0 | 0.00 | 0.00 | 0.00 | 75 | 1010.3 |
| 20260507070805 | 74 | 192 | 3.0 | 9.0 | 0.00 | 0.00 | 0.00 | 75 | 1010.2 |
| 20260507070302 | 74 | 229 | 3.0 | 9.0 | 0.00 | 0.00 | 0.00 | 75 | 1010.2 |
| 20260507065803 | 74 | 71 | 4.0 | 9.0 | 0.00 | 0.00 | 0.00 | 75 | 1010.2 |
| 20260507065306 | 74 | 141 | 3.0 | 9.0 | 0.00 | 0.00 | 0.00 | 75 | 1010.2 |
| 20260507065134 | 75 | 152 | 3.0 | 8.0 | 0.00 | 0.00 | 0.00 | 75 | 1010.2 |
| 20260507064301 | 75 | 122 | 4.0 | 10.0 | 0.00 | 0.00 | 0.00 | 75 | 1010.2 |
| 20260507063804 | 75 | 105 | 4.0 | 10.0 | 0.00 | 0.00 | 0.00 | 74 | 1010.2 |
| 20260507063636 | 75 | 123 | 4.0 | 10.0 | 0.00 | 0.00 | 0.00 | 74 | 1010.2 |
| 20260507063135 | 75 | 99 | 4.0 | 10.0 | 0.00 | 0.00 | 0.00 | 73 | 1010.3 |
| 20260507062306 | 75 | 170 | 4.0 | 10.0 | 0.00 | 0.00 | 0.00 | 73 | 1010.4 |
| 20260507062146 | 75 | 130 | 4.0 | 10.0 | 0.00 | 0.00 | 0.00 | 73 | 1010.6 |
| 20260507061303 | 75 | 142 | 4.0 | 10.0 | 0.00 | 0.00 | 0.00 | 73 | 1010.8 |
| 20260507060801 | 75 | 138 | 4.0 | 9.0 | 0.00 | 0.00 | 0.00 | 73 | 1010.9 |
| 20260507060621 | 75 | 117 | 4.0 | 9.0 | 0.00 | 0.00 | 0.00 | 73 | 1011.0 |
| 20260507055801 | 75 | 111 | 4.0 | 10.0 | 0.00 | 0.00 | 0.00 | 73 | 1010.9 |
| 20260507055305 | 75 | 118 | 4.0 | 10.0 | 0.00 | 0.00 | 0.00 | 73 | 1010.9 |
| 20260507054802 | 75 | 126 | 4.0 | 9.0 | 0.00 | 0.00 | 0.00 | 72 | 1011.0 |
| 20260507054301 | 76 | 96 | 5.0 | 10.0 | 0.00 | 0.00 | 0.00 | 72 | 1011.2 |
| 20260507053802 | 75 | 136 | 4.0 | 10.0 | 0.00 | 0.00 | 0.00 | 72 | 1011.3 |
| 20260507053303 | 75 | 173 | 4.0 | 10.0 | 0.00 | 0.00 | 0.00 | 72 | 1011.5 |
| 20260507052801 | 75 | 164 | 4.0 | 12.0 | 0.00 | 0.00 | 0.00 | 73 | 1011.5 |
| 20260507052301 | 76 | 109 | 5.0 | 12.0 | 0.00 | 0.00 | 0.00 | 72 | 1011.6 |
| 20260507051801 | 76 | 150 | 5.0 | 12.0 | 0.00 | 0.00 | 0.00 | 72 | 1011.6 |
| 20260507051300 | 76 | 121 | 5.0 | 12.0 | 0.00 | 0.00 | 0.00 | 72 | 1011.7 |
| 20260507050801 | 76 | 113 | 4.0 | 12.0 | 0.00 | 0.00 | 0.00 | 72 | 1011.9 |
| 20260507050301 | 76 | 121 | 5.0 | 12.0 | 0.00 | 0.00 | 0.00 | 72 | 1011.8 |
| 20260507045801 | 76 | 144 | 5.0 | 15.0 | 0.00 | 0.00 | 0.00 | 73 | 1011.8 |
| 20260507045336 | 76 | 132 | 7.0 | 15.0 | 0.00 | 0.00 | 0.00 | 73 | 1011.7 |
| 20260507045321 | 76 | 128 | 5.0 | 15.0 | 0.00 | 0.00 | 0.00 | 73 | 1011.8 |
| 20260507043801 | 76 | 146 | 7.0 | 16.0 | 0.00 | 0.00 | 0.00 | 74 | 1011.8 |
| 20260507043300 | 76 | 151 | 6.0 | 16.0 | 0.00 | 0.00 | 0.00 | 74 | 1011.7 |
| 20260507042800 | 76 | 163 | 6.0 | 16.0 | 0.00 | 0.00 | 0.00 | 74 | 1011.7 |
| 20260507042306 | 76 | 98 | 7.0 | 15.0 | 0.00 | 0.00 | 0.00 | 74 | 1011.5 |
| 20260507042122 | 76 | 103 | 7.0 | 15.0 | 0.00 | 0.00 | 0.00 | 74 | 1011.7 |
| 20260507041301 | 76 | 171 | 6.0 | 15.0 | 0.00 | 0.00 | 0.00 | 74 | 1011.8 |
| 20260507040801 | 76 | 162 | 6.0 | 18.0 | 0.00 | 0.00 | 0.00 | 74 | 1011.9 |
| 20260507040301 | 76 | 131 | 7.0 | 18.0 | 0.00 | 0.00 | 0.00 | 73 | 1011.8 |
| 20260507040119 | 76 | 146 | 7.0 | 17.0 | 0.00 | 0.00 | 0.00 | 73 | 1011.7 |
| 20260507035301 | 76 | 166 | 8.0 | 17.0 | 0.00 | 0.00 | 0.00 | 73 | 1011.7 |
| 20260507034801 | 76 | 130 | 9.0 | 21.0 | 0.00 | 0.00 | 0.00 | 72 | 1011.6 |
| 20260507034301 | 76 | 121 | 8.0 | 21.0 | 0.00 | 0.00 | 0.00 | 72 | 1011.6 |
| 20260507034126 | 76 | 111 | 8.0 | 18.0 | 0.00 | 0.00 | 0.00 | 71 | 1011.7 |
| 20260507033301 | 76 | 143 | 8.0 | 18.0 | 0.00 | 0.00 | 0.00 | 72 | 1011.7 |
| 20260507033124 | 76 | 165 | 7.0 | 21.0 | 0.00 | 0.00 | 0.00 | 72 | 1011.7 |
| 20260507032305 | 76 | 130 | 7.0 | 21.0 | 0.00 | 0.00 | 0.00 | 72 | 1011.7 |
| 20260507031801 | 76 | 121 | 8.0 | 21.0 | 0.00 | 0.00 | 0.00 | 73 | 1011.7 |
| 20260507031304 | 76 | 121 | 9.0 | 21.0 | 0.00 | 0.00 | 0.00 | 73 | 1011.6 |
| 20260507030929 | 76 | 121 | 9.0 | 21.0 | 0.00 | 0.00 | 0.00 | 74 | 1011.7 |
| 20260507025802 | 76 | 149 | 8.0 | 22.0 | 0.00 | 0.00 | 0.00 | 75 | 1011.5 |
| 20260507025306 | 76 | 156 | 9.0 | 22.0 | 0.00 | 0.00 | 0.00 | 76 | 1011.5 |
| 20260507025132 | 75 | 139 | 8.0 | 17.0 | 0.00 | 0.00 | 0.00 | 76 | 1011.5 |
| 20260507024301 | 75 | 167 | 9.0 | 17.0 | 0.00 | 0.00 | 0.00 | 76 | 1011.4 |
| 20260507023800 | 75 | 128 | 9.0 | 17.0 | 0.00 | 0.00 | 0.00 | 76 | 1011.3 |
| 20260507023304 | 75 | 125 | 8.0 | 18.0 | 0.00 | 0.00 | 0.00 | 77 | 1011.2 |
| 20260507023130 | 75 | 104 | 8.0 | 18.0 | 0.00 | 0.00 | 0.00 | 77 | 1011.4 |
| 20260507022301 | 75 | 135 | 7.0 | 23.0 | 0.00 | 0.00 | 0.00 | 77 | 1011.5 |
| 20260507021759 | 75 | 98 | 7.0 | 23.0 | 0.00 | 0.00 | 0.00 | 77 | 1011.6 |
| 20260507021300 | 75 | 119 | 8.0 | 23.0 | 0.00 | 0.00 | 0.00 | 77 | 1011.7 |
| 20260507020759 | 75 | 146 | 8.0 | 23.0 | 0.00 | 0.00 | 0.00 | 78 | 1011.7 |
| 20260507020258 | 75 | 140 | 8.0 | 17.0 | 0.00 | 0.00 | 0.00 | 78 | 1011.7 |
| 20260507015800 | 75 | 129 | 8.0 | 17.0 | 0.00 | 0.00 | 0.00 | 77 | 1011.6 |
| 20260507015256 | 75 | 138 | 7.0 | 17.0 | 0.00 | 0.00 | 0.00 | 77 | 1011.6 |
| 20260507014755 | 75 | 104 | 6.0 | 17.0 | 0.00 | 0.00 | 0.00 | 78 | 1011.9 |
| 20260507014254 | 75 | 109 | 7.0 | 17.0 | 0.00 | 0.00 | 0.00 | 78 | 1011.8 |
| 20260507013750 | 75 | 155 | 7.0 | 17.0 | 0.00 | 0.00 | 0.00 | 77 | 1011.9 |
| 20260507013250 | 75 | 132 | 7.0 | 14.0 | 0.00 | 0.00 | 0.00 | 78 | 1011.9 |
| 20260507012754 | 75 | 103 | 6.0 | 13.0 | 0.00 | 0.00 | 0.00 | 78 | 1012.0 |
| 20260507012248 | 75 | 114 | 5.0 | 12.0 | 0.00 | 0.00 | 0.00 | 78 | 1012.2 |
| 20260507012120 | 75 | 126 | 6.0 | 11.0 | 0.00 | 0.00 | 0.00 | 79 | 1012.2 |
| 20260507011238 | 75 | 157 | 6.0 | 12.0 | 0.00 | 0.00 | 0.00 | 79 | 1012.0 |
| 20260507010738 | 75 | 107 | 6.0 | 11.0 | 0.00 | 0.00 | 0.00 | 80 | 1012.0 |
| 20260507010236 | 75 | 106 | 6.0 | 12.0 | 0.00 | 0.00 | 0.00 | 80 | 1012.1 |
| 20260507005737 | 75 | 126 | 5.0 | 12.0 | 0.00 | 0.00 | 0.00 | 80 | 1012.1 |
| 20260507005240 | 75 | 81 | 5.0 | 11.0 | 0.00 | 0.00 | 0.00 | 79 | 1012.0 |
| 20260507004737 | 75 | 138 | 5.0 | 11.0 | 0.00 | 0.00 | 0.00 | 79 | 1011.9 |
| 20260507004240 | 75 | 138 | 5.0 | 14.0 | 0.00 | 0.00 | 0.00 | 79 | 1012.0 |
| 20260507003732 | 75 | 90 | 6.0 | 14.0 | 0.00 | 0.00 | 0.00 | 79 | 1011.6 |
| 20260507003231 | 75 | 105 | 7.0 | 14.0 | 0.00 | 0.00 | 0.00 | 78 | 1011.6 |
| 20260507002730 | 75 | 113 | 6.0 | 14.0 | 0.00 | 0.00 | 0.00 | 78 | 1011.8 |
| 20260507002230 | 75 | 135 | 6.0 | 12.0 | 0.00 | 0.00 | 0.00 | 78 | 1012.0 |
| 20260507001731 | 75 | 105 | 6.0 | 12.0 | 0.00 | 0.00 | 0.00 | 77 | 1012.0 |
| 20260507001232 | 75 | 93 | 5.0 | 12.0 | 0.00 | 0.00 | 0.00 | 77 | 1011.9 |
| 20260507000730 | 75 | 103 | 6.0 | 12.0 | 0.00 | 0.00 | 0.00 | 76 | 1011.8 |
| 20260507000601 | 76 | 117 | 6.0 | 13.0 | 0.00 | 0.00 | 0.00 | 76 | 1011.7 |
| 20260506235729 | 76 | 123 | 5.0 | 13.0 | 0.00 | 0.00 | 0.00 | 75 | 1011.7 |
| 20260506235228 | 76 | 113 | 5.0 | 12.0 | 0.00 | 0.00 | 0.00 | 75 | 1011.7 |
| 20260506234730 | 76 | 91 | 6.0 | 15.0 | 0.00 | 0.00 | 0.00 | 75 | 1011.6 |
| 20260506234231 | 76 | 150 | 7.0 | 15.0 | 0.00 | 0.00 | 0.00 | 74 | 1011.6 |
| 20260506233726 | 76 | 100 | 7.0 | 15.0 | 0.00 | 0.00 | 0.00 | 74 | 1011.5 |
| 20260506233547 | 76 | 99 | 6.0 | 15.0 | 0.00 | 0.00 | 0.00 | 73 | 1011.5 |
| 20260506232714 | 77 | 107 | 6.0 | 13.0 | 0.00 | 0.00 | 0.00 | 73 | 1011.6 |
| 20260506232206 | 77 | 103 | 7.0 | 16.0 | 0.00 | 0.00 | 0.00 | 73 | 1011.5 |
| 20260506231705 | 77 | 114 | 7.0 | 16.0 | 0.00 | 0.00 | 0.00 | 72 | 1011.7 |
| 20260506231204 | 78 | 126 | 7.0 | 16.0 | 0.00 | 0.00 | 0.00 | 71 | 1011.7 |
| 20260506230704 | 78 | 132 | 9.0 | 16.0 | 0.00 | 0.00 | 0.00 | 70 | 1011.7 |
| 20260506230204 | 78 | 104 | 8.0 | 16.0 | 0.00 | 0.00 | 0.00 | 69 | 1011.9 |
| 20260506225704 | 79 | 122 | 6.0 | 16.0 | 0.00 | 0.00 | 0.00 | 69 | 1011.9 |
| 20260506225524 | 79 | 78 | 6.0 | 18.0 | 0.00 | 0.00 | 0.00 | 68 | 1011.8 |
| 20260506224702 | 79 | 109 | 6.0 | 18.0 | 0.00 | 0.00 | 0.00 | 68 | 1011.7 |
| 20260506224202 | 79 | 128 | 6.0 | 18.0 | 0.00 | 0.00 | 0.00 | 68 | 1011.7 |
| 20260506223701 | 79 | 125 | 8.0 | 18.0 | 0.00 | 0.00 | 0.00 | 69 | 1011.8 |
| 20260506223207 | 79 | 140 | 8.0 | 18.0 | 0.00 | 0.00 | 0.00 | 69 | 1011.9 |
| 20260506222701 | 79 | 150 | 8.0 | 15.0 | 0.00 | 0.00 | 0.00 | 69 | 1011.9 |
| 20260506222543 | 79 | 123 | 7.0 | 15.0 | 0.00 | 0.00 | 0.00 | 69 | 1011.9 |
| 20260506221702 | 79 | 96 | 6.0 | 15.0 | 0.00 | 0.00 | 0.00 | 70 | 1012.1 |
| 20260506221201 | 79 | 108 | 6.0 | 17.0 | 0.00 | 0.00 | 0.00 | 71 | 1012.1 |
| 20260506220701 | 79 | 103 | 7.0 | 17.0 | 0.00 | 0.00 | 0.00 | 70 | 1012.0 |
| 20260506220202 | 79 | 119 | 8.0 | 17.0 | 0.00 | 0.00 | 0.00 | 71 | 1011.9 |
| 20260506215703 | 79 | 124 | 8.0 | 17.0 | 0.00 | 0.00 | 0.00 | 71 | 1011.9 |
| 20260506215202 | 79 | 94 | 8.0 | 16.0 | 0.00 | 0.00 | 0.00 | 70 | 1011.8 |
| 20260506214701 | 79 | 177 | 9.0 | 17.0 | 0.00 | 0.00 | 0.00 | 70 | 1011.8 |
| 20260506214201 | 79 | 98 | 10.0 | 21.0 | 0.00 | 0.00 | 0.00 | 70 | 1011.9 |
| 20260506214032 | 79 | 107 | 10.0 | 21.0 | 0.00 | 0.00 | 0.00 | 71 | 1011.9 |
| 20260506213205 | 79 | 109 | 9.0 | 18.0 | 0.00 | 0.00 | 0.00 | 70 | 1011.9 |
| 20260506212706 | 80 | 69 | 9.0 | 18.0 | 0.00 | 0.00 | 0.00 | 70 | 1012.0 |
| 20260506212204 | 80 | 83 | 9.0 | 17.0 | 0.00 | 0.00 | 0.00 | 70 | 1012.0 |
| 20260506211701 | 80 | 137 | 9.0 | 17.0 | 0.00 | 0.00 | 0.00 | 69 | 1012.0 |
| 20260506211204 | 80 | 97 | 9.0 | 17.0 | 0.00 | 0.00 | 0.00 | 68 | 1012.0 |
| 20260506210701 | 80 | 134 | 8.0 | 17.0 | 0.00 | 0.00 | 0.00 | 69 | 1012.2 |
| 20260506210202 | 81 | 153 | 8.0 | 19.0 | 0.00 | 0.00 | 0.00 | 69 | 1012.2 |
| 20260506205703 | 80 | 97 | 8.0 | 19.0 | 0.00 | 0.00 | 0.00 | 69 | 1012.0 |
| 20260506205202 | 80 | 62 | 9.0 | 19.0 | 0.00 | 0.00 | 0.00 | 68 | 1012.1 |
| 20260506204704 | 80 | 109 | 8.0 | 19.0 | 0.00 | 0.00 | 0.00 | 68 | 1012.1 |
| 20260506204202 | 81 | 115 | 8.0 | 16.0 | 0.00 | 0.00 | 0.00 | 67 | 1012.1 |
| 20260506203925 | 81 | 151 | 7.0 | 16.0 | 0.00 | 0.00 | 0.00 | 67 | 1012.1 |
| 20260506203200 | 81 | 126 | 7.0 | 16.0 | 0.00 | 0.00 | 0.00 | 68 | 1012.1 |
| 20260506202659 | 81 | 147 | 9.0 | 18.0 | 0.00 | 0.00 | 0.00 | 67 | 1012.1 |
| 20260506202159 | 80 | 99 | 9.0 | 18.0 | 0.00 | 0.00 | 0.00 | 67 | 1012.2 |
| 20260506201658 | 80 | 109 | 8.0 | 18.0 | 0.00 | 0.00 | 0.00 | 67 | 1012.2 |
| 20260506201536 | 81 | 130 | 9.0 | 18.0 | 0.00 | 0.00 | 0.00 | 66 | 1012.3 |
| 20260506200656 | 81 | 118 | 10.0 | 18.0 | 0.00 | 0.00 | 0.00 | 66 | 1012.3 |
| 20260506200524 | 81 | 111 | 10.0 | 18.0 | 0.00 | 0.00 | 0.00 | 66 | 1012.5 |
| 20260506195658 | 81 | 67 | 10.0 | 18.0 | 0.00 | 0.00 | 0.00 | 66 | 1012.4 |
| 20260506195200 | 81 | 138 | 8.0 | 18.0 | 0.00 | 0.00 | 0.00 | 66 | 1012.4 |
| 20260506194657 | 81 | 136 | 7.0 | 18.0 | 0.00 | 0.00 | 0.00 | 66 | 1012.4 |
| 20260506194526 | 81 | 81 | 9.0 | 19.0 | 0.00 | 0.00 | 0.00 | 66 | 1012.4 |
| 20260506194031 | 81 | 137 | 8.0 | 19.0 | 0.00 | 0.00 | 0.00 | 65 | 1012.5 |
| 20260506193155 | 82 | 111 | 8.0 | 19.0 | 0.00 | 0.00 | 0.00 | 65 | 1012.4 |
| 20260506192656 | 81 | 98 | 9.0 | 19.0 | 0.00 | 0.00 | 0.00 | 65 | 1012.4 |
| 20260506192156 | 82 | 125 | 6.0 | 17.0 | 0.00 | 0.00 | 0.00 | 65 | 1012.5 |
| 20260506191654 | 81 | 92 | 7.0 | 18.0 | 0.00 | 0.00 | 0.00 | 65 | 1012.6 |
| 20260506191154 | 81 | 106 | 8.0 | 18.0 | 0.00 | 0.00 | 0.00 | 66 | 1012.6 |
| 20260506190654 | 81 | 82 | 8.0 | 17.0 | 0.00 | 0.00 | 0.00 | 66 | 1012.7 |
| 20260506190314 | 82 | 99 | 7.0 | 17.0 | 0.00 | 0.00 | 0.00 | 64 | 1012.8 |
| 20260506185154 | 81 | 116 | 9.0 | 16.0 | 0.00 | 0.00 | 0.00 | 67 | 1012.9 |
| 20260506184654 | 80 | 98 | 11.0 | 18.0 | 0.00 | 0.00 | 0.00 | 67 | 1013.0 |
| 20260506184154 | 80 | 92 | 10.0 | 19.0 | 0.00 | 0.00 | 0.00 | 66 | 1013.2 |
| 20260506183650 | 81 | 71 | 9.0 | 19.0 | 0.00 | 0.00 | 0.00 | 66 | 1013.1 |
| 20260506183151 | 81 | 90 | 9.0 | 19.0 | 0.00 | 0.00 | 0.00 | 66 | 1013.2 |
| 20260506182650 | 81 | 65 | 10.0 | 19.0 | 0.00 | 0.00 | 0.00 | 65 | 1013.3 |
| 20260506182149 | 81 | 111 | 10.0 | 18.0 | 0.00 | 0.00 | 0.00 | 65 | 1013.3 |
| 20260506181651 | 82 | 88 | 8.0 | 17.0 | 0.00 | 0.00 | 0.00 | 64 | 1013.4 |
| 20260506181548 | 82 | 101 | 8.0 | 18.0 | 0.00 | 0.00 | 0.00 | 65 | 1013.4 |
| 20260506180650 | 82 | 105 | 8.0 | 18.0 | 0.00 | 0.00 | 0.00 | 62 | 1013.4 |
| 20260506180151 | 82 | 140 | 7.0 | 17.0 | 0.00 | 0.00 | 0.00 | 65 | 1013.4 |
| 20260506175650 | 82 | 107 | 8.0 | 17.0 | 0.00 | 0.00 | 0.00 | 64 | 1013.6 |
| 20260506175146 | 82 | 91 | 7.0 | 17.0 | 0.00 | 0.00 | 0.00 | 66 | 1013.7 |
| 20260506174646 | 82 | 135 | 7.0 | 17.0 | 0.00 | 0.00 | 0.00 | 64 | 1013.7 |
| 20260506174146 | 82 | 111 | 8.0 | 17.0 | 0.00 | 0.00 | 0.00 | 64 | 1013.8 |
| 20260506173651 | 82 | 157 | 8.0 | 17.0 | 0.00 | 0.00 | 0.00 | 63 | 1013.8 |
| 20260506173149 | 82 | 98 | 8.0 | 15.0 | 0.00 | 0.00 | 0.00 | 62 | 1014.0 |
| 20260506172650 | 82 | 145 | 8.0 | 14.0 | 0.00 | 0.00 | 0.00 | 63 | 1014.1 |
| 20260506172146 | 82 | 103 | 7.0 | 14.0 | 0.00 | 0.00 | 0.00 | 63 | 1014.3 |
| 20260506172000 | 82 | 112 | 6.0 | 14.0 | 0.00 | 0.00 | 0.00 | 62 | 1014.3 |
| 20260506171146 | 82 | 113 | 5.0 | 12.0 | 0.00 | 0.00 | 0.00 | 64 | 1014.3 |
| 20260506171017 | 82 | 115 | 6.0 | 14.0 | 0.00 | 0.00 | 0.00 | 64 | 1014.3 |
| 20260506170142 | 82 | 127 | 5.0 | 14.0 | 0.00 | 0.00 | 0.00 | 64 | 1014.4 |
| 20260506165643 | 81 | 100 | 5.0 | 14.0 | 0.00 | 0.00 | 0.00 | 65 | 1014.4 |
| 20260506165511 | 82 | 139 | 7.0 | 15.0 | 0.00 | 0.00 | 0.00 | 64 | 1014.4 |
| 20260506165010 | 82 | 118 | 6.0 | 15.0 | 0.00 | 0.00 | 0.00 | 62 | 1014.6 |
| 20260506164140 | 83 | 91 | 5.0 | 15.0 | 0.00 | 0.00 | 0.00 | 61 | 1014.6 |
| 20260506163638 | 83 | 130 | 4.0 | 15.0 | 0.00 | 0.00 | 0.00 | 60 | 1014.6 |
| 20260506163459 | 83 | 140 | 5.0 | 14.0 | 0.00 | 0.00 | 0.00 | 60 | 1014.5 |
| 20260506162635 | 83 | 154 | 6.0 | 13.0 | 0.00 | 0.00 | 0.00 | 53 | 1014.6 |
| 20260506162134 | 83 | 108 | 6.0 | 12.0 | 0.00 | 0.00 | 0.00 | 53 | 1014.6 |
| 20260506161632 | 83 | 188 | 5.0 | 12.0 | 0.00 | 0.00 | 0.00 | 54 | 1014.7 |
| 20260506161132 | 83 | 165 | 5.0 | 16.0 | 0.00 | 0.00 | 0.00 | 53 | 1014.8 |
| 20260506160629 | 83 | 98 | 5.0 | 16.0 | 0.00 | 0.00 | 0.00 | 53 | 1014.7 |
| 20260506160132 | 82 | 189 | 4.0 | 10.0 | 0.00 | 0.00 | 0.00 | 55 | 1015.1 |
| 20260506160001 | 82 | 121 | 4.0 | 14.0 | 0.00 | 0.00 | 0.00 | 56 | 1015.0 |
| 20260506155123 | 81 | 97 | 4.0 | 14.0 | 0.00 | 0.00 | 0.00 | 55 | 1015.0 |
| 20260506154619 | 81 | 229 | 4.0 | 14.0 | 0.00 | 0.00 | 0.00 | 56 | 1014.8 |
| 20260506154117 | 81 | 135 | 6.0 | 14.0 | 0.00 | 0.00 | 0.00 | 56 | 1014.9 |
| 20260506153617 | 80 | 122 | 5.0 | 10.0 | 0.00 | 0.00 | 0.00 | 58 | 1014.9 |
| 20260506153114 | 80 | 175 | 5.0 | 10.0 | 0.00 | 0.00 | 0.00 | 57 | 1015.0 |
| 20260506152616 | 80 | 200 | 6.0 | 12.0 | 0.00 | 0.00 | 0.00 | 59 | 1015.1 |
| 20260506152112 | 80 | 159 | 5.0 | 12.0 | 0.00 | 0.00 | 0.00 | 59 | 1015.2 |
| 20260506151615 | 80 | 105 | 4.0 | 11.0 | 0.00 | 0.00 | 0.00 | 58 | 1015.2 |
| 20260506151110 | 80 | 132 | 5.0 | 14.0 | 0.00 | 0.00 | 0.00 | 58 | 1015.3 |
| 20260506151100 | 80 | 146 | 5.0 | 14.0 | 0.00 | 0.00 | 0.00 | 59 | 1015.2 |
| 20260506150325 | 79 | 134 | 5.0 | 15.0 | 0.00 | 0.00 | 0.00 | 59 | 1015.0 |
| 20260506145656 | 79 | 136 | 6.0 | 15.0 | 0.00 | 0.00 | 0.00 | 59 | 1014.8 |
| 20260506145106 | 79 | 175 | 6.0 | 16.0 | 0.00 | 0.00 | 0.00 | 60 | 1014.8 |
| 20260506144602 | 78 | 173 | 6.0 | 16.0 | 0.00 | 0.00 | 0.00 | 60 | 1014.7 |
| 20260506144102 | 78 | 137 | 5.0 | 15.0 | 0.00 | 0.00 | 0.00 | 61 | 1014.7 |
| 20260506143612 | 78 | 197 | 5.0 | 14.0 | 0.00 | 0.00 | 0.00 | 61 | 1014.7 |
| 20260506143106 | 78 | 137 | 5.0 | 14.0 | 0.00 | 0.00 | 0.00 | 62 | 1014.8 |
| 20260506142606 | 78 | 175 | 5.0 | 15.0 | 0.00 | 0.00 | 0.00 | 62 | 1014.8 |
| 20260506142455 | 77 | 142 | 6.0 | 15.0 | 0.00 | 0.00 | 0.00 | 62 | 1014.6 |
| 20260506141601 | 77 | 135 | 6.0 | 15.0 | 0.00 | 0.00 | 0.00 | 62 | 1014.6 |
| 20260506141102 | 77 | 167 | 4.0 | 12.0 | 0.00 | 0.00 | 0.00 | 63 | 1014.6 |
| 20260506140553 | 77 | 138 | 3.0 | 11.0 | 0.00 | 0.00 | 0.00 | 65 | 1014.7 |
| 20260506140046 | 76 | 117 | 5.0 | 11.0 | 0.00 | 0.00 | 0.00 | 65 | 1014.7 |
| 20260506135541 | 76 | 187 | 5.0 | 11.0 | 0.00 | 0.00 | 0.00 | 66 | 1014.6 |
| 20260506135035 | 76 | 105 | 5.0 | 13.0 | 0.00 | 0.00 | 0.00 | 67 | 1014.7 |
| 20260506134535 | 76 | 155 | 5.0 | 13.0 | 0.00 | 0.00 | 0.00 | 67 | 1014.6 |
| 20260506134034 | 75 | 178 | 5.0 | 14.0 | 0.00 | 0.00 | 0.00 | 67 | 1014.5 |
| 20260506133535 | 75 | 111 | 5.0 | 14.0 | 0.00 | 0.00 | 0.00 | 68 | 1014.3 |
| 20260506133031 | 74 | 191 | 5.0 | 13.0 | 0.00 | 0.00 | 0.00 | 69 | 1014.2 |
| 20260506132531 | 74 | 182 | 6.0 | 13.0 | 0.00 | 0.00 | 0.00 | 70 | 1014.3 |
| 20260506132425 | 74 | 122 | 6.0 | 13.0 | 0.00 | 0.00 | 0.00 | 70 | 1014.2 |
| 20260506131531 | 74 | 153 | 5.0 | 13.0 | 0.00 | 0.00 | 0.00 | 72 | 1014.2 |
| 20260506131032 | 74 | 166 | 5.0 | 12.0 | 0.00 | 0.00 | 0.00 | 72 | 1014.2 |
| 20260506130532 | 73 | 117 | 5.0 | 12.0 | 0.00 | 0.00 | 0.00 | 73 | 1014.3 |
| 20260506130032 | 73 | 143 | 4.0 | 13.0 | 0.00 | 0.00 | 0.00 | 73 | 1014.4 |